| time (UTC) | temp F | wind direction | speed MPH | gust MPH | rain 1hr in | rain 24hr in | rain mn in | humidity % | barometer mb |
| 20260831053012 | 61 | 247 | 1.0 | 3.0 | 0.00 | 0.00 | 0.00 | 88 | 18.6 |
| 20260831051012 | 61 | 225 | 4.0 | 8.0 | 0.00 | 0.00 | 0.00 | 88 | 18.5 |
| 20260831044012 | 62 | 247 | 5.0 | 9.0 | 0.00 | 0.00 | 0.00 | 89 | 18.3 |
| 20260831043012 | 62 | 225 | 5.0 | 8.0 | 0.00 | 0.00 | 0.00 | 89 | 18.3 |
| 20260831042012 | 62 | 225 | 5.0 | 10.0 | 0.00 | 0.00 | 0.00 | 89 | 18.3 |
| 20260831040013 | 62 | 225 | 3.0 | 6.0 | 0.00 | 0.00 | 0.00 | 89 | 18.4 |
| 20260831035012 | 62 | 225 | 4.0 | 6.0 | 0.00 | 0.00 | 0.00 | 89 | 18.4 |
| 20260831034012 | 62 | 247 | 1.0 | 3.0 | 0.00 | 0.00 | 0.00 | 89 | 18.5 |
| 20260831033012 | 62 | 247 | 3.0 | 6.0 | 0.00 | 0.00 | 0.00 | 88 | 18.4 |
| 20260831032012 | 63 | 247 | 3.0 | 5.0 | 0.00 | 0.00 | 0.00 | 88 | 18.4 |
| 20260831031012 | 64 | 247 | 3.0 | 9.0 | 0.00 | 0.00 | 0.00 | 87 | 18.4 |
| 20260831030013 | 64 | 247 | 4.0 | 10.0 | 0.00 | 0.00 | 0.00 | 87 | 18.4 |
| 20260831024012 | 64 | 225 | 4.0 | 11.0 | 0.00 | 0.00 | 0.00 | 87 | 18.3 |
| 20260831023012 | 64 | 225 | 6.0 | 11.0 | 0.00 | 0.00 | 0.00 | 88 | 18.1 |
| 20260831022012 | 64 | 225 | 4.0 | 8.0 | 0.00 | 0.00 | 0.00 | 88 | 18.0 |
| 20260831021012 | 64 | 225 | 6.0 | 11.0 | 0.00 | 0.00 | 0.00 | 88 | 17.9 |
| 20260831020013 | 64 | 225 | 4.0 | 8.0 | 0.00 | 0.00 | 0.00 | 88 | 17.8 |
| 20260831015012 | 64 | 225 | 3.0 | 8.0 | 0.00 | 0.00 | 0.00 | 88 | 17.8 |
| 20260831013012 | 64 | 225 | 4.0 | 8.0 | 0.00 | 0.00 | 0.00 | 89 | 17.6 |
| 20260831012012 | 63 | 225 | 1.0 | 5.0 | 0.00 | 0.00 | 0.00 | 90 | 17.5 |
| 20260831011012 | 63 | 225 | 0.0 | 3.0 | 0.00 | 0.00 | 0.00 | 90 | 17.5 |
| 20260831010013 | 63 | 225 | 0.0 | 4.0 | 0.00 | 0.00 | 0.00 | 90 | 17.5 |
| 20260831005012 | 63 | 225 | 2.0 | 5.0 | 0.00 | 0.00 | 0.00 | 89 | 17.4 |
| 20260831004012 | 63 | 225 | 1.0 | 4.0 | 0.00 | 0.00 | 0.00 | 89 | 17.3 |
| 20260831003012 | 64 | 225 | 1.0 | 5.0 | 0.00 | 0.00 | 0.00 | 89 | 17.3 |
| 20260831002013 | 63 | 225 | 0.0 | 2.0 | 0.00 | 0.00 | 0.00 | 89 | 17.2 |
| 20260831000014 | 64 | 247 | 1.0 | 4.0 | 0.00 | 0.00 | 0.00 | 89 | 17.1 |
| 20260830235012 | 64 | 247 | 0.0 | 2.0 | 0.00 | 0.00 | 0.00 | 90 | 17.1 |
| 20260830233012 | 64 | 247 | 1.0 | 4.0 | 0.00 | 0.00 | 0.00 | 90 | 16.9 |
| 20260830232012 | 64 | 0 | 0.0 | 0.0 | 0.00 | 0.00 | 0.00 | 90 | 16.9 |
| 20260830231012 | 65 | 247 | 1.0 | 5.0 | 0.00 | 0.00 | 0.00 | 89 | 16.9 |
| 20260830230012 | 65 | 247 | 1.0 | 6.0 | 0.00 | 0.00 | 0.00 | 89 | 16.8 |
| 20260830224012 | 65 | 225 | 1.0 | 4.0 | 0.00 | 0.00 | 0.00 | 89 | 16.8 |
| 20260830223012 | 65 | 225 | 3.0 | 8.0 | 0.00 | 0.00 | 0.00 | 89 | 16.8 |
| 20260830222012 | 66 | 247 | 3.0 | 8.0 | 0.00 | 0.00 | 0.00 | 90 | 16.5 |
| 20260830221012 | 66 | 270 | 4.0 | 8.0 | 0.00 | 0.00 | 0.00 | 90 | 16.3 |
| 20260830215012 | 66 | 247 | 4.0 | 8.0 | 0.00 | 0.01 | 0.01 | 91 | 15.9 |
| 20260830214013 | 66 | 247 | 5.0 | 11.0 | 0.00 | 0.01 | 0.01 | 91 | 15.8 |
| 20260830212017 | 66 | 247 | 3.0 | 9.0 | 0.00 | 0.01 | 0.01 | 90 | 15.5 |
| 20260830211015 | 66 | 225 | 4.0 | 8.0 | 0.00 | 0.01 | 0.01 | 89 | 15.5 |
| 20260830210012 | 66 | 225 | 4.0 | 7.0 | 0.01 | 0.01 | 0.01 | 89 | 15.3 |
| 20260830205012 | 67 | 247 | 4.0 | 8.0 | 0.01 | 0.01 | 0.01 | 89 | 15.0 |
| 20260830204012 | 67 | 270 | 3.0 | 8.0 | 0.01 | 0.01 | 0.01 | 89 | 14.6 |
| 20260830203012 | 68 | 225 | 1.0 | 3.0 | 0.01 | 0.01 | 0.01 | 88 | 14.1 |
| 20260830202012 | 69 | 270 | 8.0 | 13.0 | 0.01 | 0.01 | 0.01 | 86 | 14.8 |
| 20260830201012 | 68 | 225 | 7.0 | 14.0 | 0.01 | 0.01 | 0.01 | 90 | 15.1 |
| 20260830200013 | 68 | 0 | 0.0 | 0.0 | 0.00 | 0.00 | 0.00 | 90 | 13.6 |
| 20260830195012 | 68 | 0 | 0.0 | 0.0 | 0.00 | 0.00 | 0.00 | 90 | 13.4 |
| 20260830194012 | 69 | 0 | 0.0 | 0.0 | 0.00 | 0.00 | 0.00 | 88 | 13.5 |
| 20260830193011 | 69 | 270 | 0.0 | 3.0 | 0.00 | 0.00 | 0.00 | 87 | 13.5 |
| 20260830192011 | 70 | 270 | 1.0 | 6.0 | 0.00 | 0.00 | 0.00 | 86 | 13.4 |
| 20260830191015 | 70 | 0 | 0.0 | 0.0 | 0.00 | 0.00 | 0.00 | 84 | 13.1 |
| 20260830190012 | 72 | 270 | 1.0 | 5.0 | 0.00 | 0.00 | 0.00 | 80 | 13.1 |
| 20260830185011 | 74 | 270 | 3.0 | 7.0 | 0.00 | 0.00 | 0.00 | 74 | 13.3 |
| 20260830184011 | 75 | 45 | 2.0 | 4.0 | 0.00 | 0.00 | 0.00 | 72 | 12.9 |
| 20260830183012 | 75 | 0 | 0.0 | 0.0 | 0.00 | 0.00 | 0.00 | 68 | 12.4 |
| 20260830180013 | 77 | 0 | 0.0 | 0.0 | 0.00 | 0.00 | 0.00 | 63 | 12.1 |
| 20260830175011 | 78 | 45 | 1.0 | 3.0 | 0.00 | 0.00 | 0.00 | 61 | 12.1 |
| 20260830174011 | 80 | 0 | 0.0 | 0.0 | 0.00 | 0.00 | 0.00 | 60 | 12.3 |
| 20260830165012 | 83 | 45 | 1.0 | 3.0 | 0.00 | 0.00 | 0.00 | 53 | 12.6 |
| 20260830163011 | 83 | 22 | 0.0 | 2.0 | 0.00 | 0.00 | 0.00 | 52 | 12.7 |
| 20260830161011 | 83 | 337 | 1.0 | 4.0 | 0.00 | 0.00 | 0.00 | 52 | 13.0 |
| 20260830160012 | 84 | 225 | 2.0 | 7.0 | 0.00 | 0.00 | 0.00 | 51 | 13.0 |
| 20260830155011 | 84 | 135 | 1.0 | 4.0 | 0.00 | 0.00 | 0.00 | 51 | 13.1 |
| 20260830154011 | 84 | 157 | 2.0 | 4.0 | 0.00 | 0.00 | 0.00 | 52 | 13.2 |
| 20260830153011 | 83 | 225 | 1.0 | 4.0 | 0.00 | 0.00 | 0.00 | 52 | 13.2 |
| 20260830152012 | 82 | 202 | 1.0 | 4.0 | 0.00 | 0.00 | 0.00 | 53 | 13.4 |
| 20260830151011 | 83 | 225 | 1.0 | 4.0 | 0.00 | 0.00 | 0.00 | 53 | 13.5 |
| 20260830150020 | 82 | 247 | 0.0 | 2.0 | 0.00 | 0.00 | 0.00 | 54 | 13.5 |
| 20260830145011 | 83 | 180 | 1.0 | 5.0 | 0.00 | 0.00 | 0.00 | 53 | 13.5 |
| 20260830144011 | 81 | 225 | 1.0 | 4.0 | 0.00 | 0.00 | 0.00 | 55 | 13.7 |
| 20260830143011 | 82 | 225 | 1.0 | 3.0 | 0.00 | 0.00 | 0.00 | 54 | 13.7 |
| 20260830141012 | 80 | 225 | 0.0 | 3.0 | 0.00 | 0.00 | 0.00 | 57 | 14.1 |
| 20260830135011 | 81 | 247 | 0.0 | 2.0 | 0.00 | 0.00 | 0.00 | 56 | 14.3 |
| 20260830134011 | 81 | 225 | 4.0 | 8.0 | 0.00 | 0.00 | 0.00 | 55 | 14.4 |
| 20260830133011 | 81 | 225 | 1.0 | 4.0 | 0.00 | 0.00 | 0.00 | 56 | 14.5 |
| 20260830132011 | 81 | 270 | 1.0 | 3.0 | 0.00 | 0.00 | 0.00 | 55 | 14.6 |
| 20260830131011 | 80 | 225 | 5.0 | 9.0 | 0.00 | 0.00 | 0.00 | 56 | 14.7 |
| 20260830124011 | 81 | 270 | 2.0 | 6.0 | 0.00 | 0.00 | 0.00 | 56 | 15.0 |
| 20260830123011 | 82 | 225 | 5.0 | 9.0 | 0.00 | 0.00 | 0.00 | 54 | 15.0 |
| 20260830122011 | 82 | 225 | 3.0 | 9.0 | 0.00 | 0.00 | 0.00 | 54 | 15.0 |
| 20260830120011 | 81 | 270 | 4.0 | 10.0 | 0.00 | 0.00 | 0.00 | 55 | 15.2 |
| 20260830115011 | 82 | 225 | 3.0 | 10.0 | 0.00 | 0.00 | 0.00 | 55 | 15.2 |
| 20260830113011 | 81 | 270 | 2.0 | 6.0 | 0.00 | 0.00 | 0.00 | 56 | 15.4 |
| 20260830112011 | 81 | 270 | 3.0 | 13.0 | 0.00 | 0.00 | 0.00 | 58 | 15.5 |
| 20260830110011 | 80 | 225 | 3.0 | 10.0 | 0.00 | 0.00 | 0.00 | 58 | 15.6 |
| 20260830105011 | 80 | 225 | 2.0 | 5.0 | 0.00 | 0.00 | 0.00 | 59 | 15.7 |
| 20260830104011 | 78 | 270 | 3.0 | 8.0 | 0.00 | 0.00 | 0.00 | 63 | 15.8 |
| 20260830103011 | 80 | 247 | 4.0 | 11.0 | 0.00 | 0.00 | 0.00 | 61 | 15.9 |
| 20260830102011 | 79 | 247 | 5.0 | 10.0 | 0.00 | 0.00 | 0.00 | 62 | 16.0 |
| 20260830101011 | 79 | 270 | 4.0 | 13.0 | 0.00 | 0.00 | 0.00 | 62 | 16.1 |
| 20260830100011 | 78 | 180 | 2.0 | 8.0 | 0.00 | 0.00 | 0.00 | 65 | 16.3 |
| 20260830095011 | 76 | 225 | 4.0 | 10.0 | 0.00 | 0.00 | 0.00 | 67 | 16.3 |
| 20260830094010 | 76 | 225 | 5.0 | 9.0 | 0.00 | 0.00 | 0.00 | 66 | 16.2 |
| 20260830093010 | 78 | 247 | 6.0 | 12.0 | 0.00 | 0.00 | 0.00 | 64 | 16.2 |
| 20260830092011 | 78 | 270 | 2.0 | 9.0 | 0.00 | 0.00 | 0.00 | 66 | 16.3 |
| 20260830091010 | 77 | 225 | 6.0 | 11.0 | 0.00 | 0.00 | 0.00 | 66 | 16.3 |
| 20260830090013 | 77 | 270 | 5.0 | 12.0 | 0.00 | 0.00 | 0.00 | 66 | 16.2 |
| 20260830084010 | 77 | 270 | 2.0 | 6.0 | 0.00 | 0.00 | 0.00 | 67 | 16.2 |
| 20260830083010 | 76 | 225 | 2.0 | 6.0 | 0.00 | 0.00 | 0.00 | 68 | 16.2 |
| 20260830082010 | 76 | 247 | 3.0 | 6.0 | 0.00 | 0.00 | 0.00 | 70 | 16.2 |
| 20260830081010 | 74 | 225 | 6.0 | 12.0 | 0.00 | 0.00 | 0.00 | 70 | 16.3 |
| 20260830080011 | 74 | 270 | 3.0 | 9.0 | 0.00 | 0.00 | 0.00 | 69 | 16.4 |
| 20260830075010 | 74 | 247 | 3.0 | 7.0 | 0.00 | 0.00 | 0.00 | 70 | 16.3 |
| 20260830074010 | 74 | 270 | 2.0 | 7.0 | 0.00 | 0.00 | 0.00 | 70 | 16.4 |
| 20260830073010 | 73 | 270 | 1.0 | 10.0 | 0.00 | 0.00 | 0.00 | 72 | 16.3 |
| 20260830072010 | 72 | 225 | 3.0 | 8.0 | 0.00 | 0.00 | 0.00 | 71 | 16.4 |
| 20260830071010 | 72 | 270 | 2.0 | 7.0 | 0.00 | 0.00 | 0.00 | 72 | 16.3 |
| 20260830070011 | 71 | 247 | 2.0 | 5.0 | 0.00 | 0.00 | 0.00 | 73 | 16.2 |
| 20260830065010 | 70 | 270 | 0.0 | 2.0 | 0.00 | 0.00 | 0.00 | 74 | 16.2 |
| 20260830064010 | 69 | 270 | 0.0 | 3.0 | 0.00 | 0.00 | 0.00 | 77 | 16.1 |
| 20260830062010 | 67 | 0 | 0.0 | 0.0 | 0.00 | 0.00 | 0.00 | 79 | 15.8 |
| 20260830061010 | 68 | 0 | 0.0 | 0.0 | 0.00 | 0.00 | 0.00 | 78 | 15.9 |
| 20260830060011 | 67 | 0 | 0.0 | 0.0 | 0.00 | 0.00 | 0.00 | 79 | 16.0 |
| 20260830055011 | 67 | 0 | 0.0 | 0.0 | 0.00 | 0.00 | 0.00 | 79 | 15.9 |
| 20260830054010 | 67 | 0 | 0.0 | 0.0 | 0.00 | 0.00 | 0.00 | 79 | 15.7 |